Total_Precipitation_Accumulation
0.90 0.79 0.65 0.61 0.62 0.65 0.73 0.78 0.68 0.58 0.63 0.58 0.30 0.13 0.10 0.11 0.11 0.06 0.06 0.05 0.03 0.03 0.03 0.05 0.07 0.10 0.17 0.25 0.34 0.43 0.46 0.45 0.43 0.37 0.33 0.28 0.23 0.22
0.77 0.71 0.62 0.57 0.57 0.59 0.64 0.72 0.79 0.77 0.69 0.66 0.50 0.25 0.18 0.16 0.13 0.10 0.10 0.05 0.03 0.02 0.02 0.03 0.05 0.07 0.11 0.17 0.24 0.32 0.36 0.37 0.38 0.38 0.37 0.34 0.29 0.25
0.55 0.52 0.49 0.50 0.52 0.53 0.54 0.56 0.72 0.86 0.82 0.85 0.76 0.58 0.41 0.31 0.24 0.20 0.15 0.10 0.08 0.03 0.02 0.02 0.03 0.06 0.09 0.14 0.20 0.27 0.32 0.35 0.37 0.40 0.42 0.40 0.36 0.29
0.45 0.48 0.50 0.56 0.56 0.49 0.50 0.55 0.71 0.88 0.97 1.11 1.21 0.96 0.69 0.48 0.41 0.30 0.18 0.12 0.13 0.06 0.03 0.02 0.03 0.04 0.06 0.11 0.17 0.26 0.33 0.37 0.40 0.43 0.43 0.42 0.41 0.37
0.34 0.43 0.45 0.45 0.47 0.46 0.50 0.56 0.63 0.73 0.86 1.00 1.18 1.01 0.84 0.62 0.60 0.48 0.33 0.31 0.19 0.12 0.06 0.03 0.02 0.02 0.04 0.08 0.15 0.22 0.31 0.39 0.42 0.48 0.50 0.47 0.47 0.47
0.21 0.26 0.29 0.29 0.33 0.37 0.39 0.47 0.54 0.57 0.62 0.72 0.88 0.97 1.01 0.95 0.89 0.78 0.66 0.56 0.43 0.29 0.23 0.10 0.05 0.04 0.04 0.06 0.11 0.19 0.28 0.37 0.43 0.47 0.53 0.56 0.57 0.55
0.12 0.12 0.10 0.12 0.15 0.19 0.24 0.33 0.41 0.49 0.55 0.64 0.77 0.92 1.02 1.07 1.00 0.99 0.90 0.83 0.69 0.61 0.63 0.45 0.34 0.25 0.17 0.12 0.11 0.15 0.23 0.34 0.41 0.48 0.54 0.58 0.62 0.64
0.07 0.06 0.04 0.04 0.05 0.08 0.10 0.13 0.19 0.29 0.44 0.62 0.76 0.93 0.99 0.97 1.10 1.09 1.06 1.02 0.95 0.88 0.89 0.89 0.83 0.70 0.53 0.34 0.24 0.18 0.18 0.26 0.39 0.46 0.53 0.60 0.64 0.66
0.02 0.02 0.01 0.00 0.01 0.03 0.06 0.11 0.11 0.11 0.16 0.38 0.57 0.64 0.65 0.64 0.84 1.04 1.03 1.04 1.13 1.06 1.05 1.12 1.09 0.98 0.75 0.56 0.39 0.26 0.22 0.23 0.30 0.39 0.46 0.53 0.60 0.63
0.01 0.00 0.00 0.00 0.00 0.01 0.04 0.09 0.06 0.04 0.06 0.14 0.19 0.20 0.25 0.34 0.50 0.76 0.98 0.98 1.07 1.11 1.12 1.27 1.25 1.19 1.00 0.76 0.54 0.33 0.25 0.26 0.31 0.35 0.39 0.43 0.47 0.49
0.00 0.00 0.00 0.00 0.00 0.00 0.05 0.08 0.06 0.03 0.01 0.02 0.04 0.06 0.10 0.13 0.21 0.37 0.60 0.90 1.18 1.24 1.14 1.29 1.35 1.38 1.41 1.15 0.83 0.58 0.39 0.31 0.30 0.33 0.35 0.35 0.34 0.34
0.01 0.00 0.00 0.00 0.00 0.00 0.02 0.05 0.04 0.03 0.02 0.03 0.04 0.04 0.06 0.08 0.08 0.16 0.29 0.53 0.83 1.02 1.05 1.17 1.41 1.65 1.79 1.52 1.11 0.80 0.62 0.52 0.42 0.32 0.30 0.28 0.25 0.23
0.01 0.00 0.00 0.00 0.00 0.00 0.00 0.00 0.00 0.00 0.02 0.03 0.04 0.05 0.05 0.05 0.04 0.06 0.11 0.21 0.37 0.50 0.61 0.81 1.04 1.31 1.65 1.73 1.57 1.23 0.95 0.73 0.57 0.45 0.35 0.28 0.24 0.22
0.01 0.00 0.00 0.00 0.00 0.00 0.00 0.00 0.00 0.00 0.02 0.03 0.03 0.03 0.04 0.04 0.04 0.03 0.07 0.11 0.19 0.28 0.37 0.52 0.69 0.90 1.07 1.22 1.32 1.37 1.35 1.19 0.93 0.71 0.54 0.46 0.38 0.32
0.01 0.01 0.01 0.01 0.00 0.00 0.00 0.00 0.00 0.01 0.01 0.02 0.03 0.03 0.03 0.03 0.03 0.05 0.06 0.08 0.11 0.12 0.16 0.27 0.41 0.55 0.68 0.85 0.98 1.05 1.12 1.14 1.09 0.98 0.87 0.72 0.56 0.45
0.02 0.01 0.01 0.01 0.01 0.01 0.01 0.01 0.00 0.01 0.01 0.02 0.03 0.04 0.03 0.03 0.03 0.04 0.06 0.08 0.10 0.12 0.12 0.15 0.25 0.35 0.44 0.54 0.63 0.74 0.85 0.97 1.06 1.09 1.05 0.96 0.81 0.66
0.03 0.03 0.02 0.02 0.02 0.03 0.02 0.01 0.01 0.01 0.02 0.02 0.02 0.04 0.05 0.05 0.04 0.04 0.05 0.08 0.11 0.15 0.14 0.11 0.15 0.22 0.24 0.27 0.41 0.53 0.62 0.69 0.83 0.97 1.05 1.04 0.89 0.75
0.05 0.06 0.06 0.05 0.04 0.03 0.03 0.02 0.03 0.02 0.03 0.03 0.04 0.04 0.05 0.05 0.05 0.05 0.05 0.06 0.08 0.12 0.14 0.12 0.12 0.18 0.24 0.21 0.18 0.28 0.39 0.49 0.54 0.62 0.74 0.84 0.81 0.72
0.06 0.09 0.10 0.08 0.06 0.04 0.03 0.03 0.04 0.04 0.04 0.04 0.06 0.07 0.07 0.06 0.07 0.06 0.06 0.07 0.09 0.10 0.13 0.13 0.12 0.14 0.21 0.27 0.21 0.14 0.20 0.29 0.35 0.37 0.45 0.55 0.63 0.58
0.04 0.08 0.11 0.11 0.08 0.06 0.04 0.03 0.03 0.03 0.03 0.04 0.06 0.06 0.06 0.07 0.08 0.08 0.06 0.06 0.08 0.12 0.16 0.17 0.14 0.11 0.14 0.21 0.22 0.18 0.09 0.15 0.23 0.28 0.29 0.32 0.34 0.35
0.02 0.03 0.05 0.06 0.07 0.07 0.06 0.05 0.04 0.04 0.03 0.03 0.04 0.06 0.06 0.08 0.09 0.11 0.10 0.09 0.08 0.09 0.14 0.19 0.18 0.13 0.15 0.21 0.25 0.25 0.17 0.09 0.11 0.16 0.19 0.23 0.27 0.26
0.01 0.01 0.02 0.02 0.03 0.04 0.05 0.04 0.04 0.04 0.04 0.04 0.04 0.05 0.06 0.08 0.10 0.11 0.12 0.12 0.11 0.11 0.13 0.15 0.16 0.16 0.18 0.21 0.23 0.23 0.22 0.18 0.11 0.06 0.08 0.11 0.14 0.17
0.00 0.00 0.01 0.01 0.01 0.02 0.02 0.03 0.03 0.03 0.03 0.03 0.03 0.04 0.05 0.06 0.06 0.08 0.09 0.10 0.11 0.11 0.12 0.14 0.16 0.18 0.20 0.24 0.28 0.27 0.22 0.20 0.19 0.18 0.13 0.06 0.05 0.04